Location: De Har
(53.3413°N, 6.6858°E)
Time: 17:19:36
(UTC+00:00)

Cosmos 2098 Rocket - Pass Details

Date: 22 April 2026
Orbit: 347 x 842 km, 82.9° (Epoch: 9 May)

Event Time Altitude Azimuth Distance (km) Brightness Sun altitude
Exits shadow 01:04:20 35° 247° (WSW) 1,335 4.3 -21.6°
Maximum altitude 01:05:59 44° 289° (WNW) 1,154 4.3 -21.5°
Drops below altitude 10° 01:11:19 10° 1° (N) 2,427 7.0 -21.1°
Sets 01:13:48 0° 8° (N) 3,319 8.1 -21.0°
